Location: *
(43.4667°N, 11.6833°E)
Time: 23:01:49
(UTC+00:00)

MetOp-B - Pass Details

Date: 19 July 2019
Orbit: 819 x 822 km, 98.7° (Epoch: 21 August)

Event Time Altitude Azimuth Distance (km) Brightness Sun altitude
Exits shadow 20:09:55 11° 168° (SSE) 2,311 6.0 -12.4°
Maximum altitude 20:15:01 82° 256° (WSW) 836 4.2 -13.1°
Drops below altitude 10° 20:20:24 10° 344° (NNW) 2,428 7.6 -13.7°
Sets 20:22:46 0° 346° (NNW) 3,365 8.5 -14.0°
